This is the latest recevied weather packets stored in our database for station/object WC4PEM-9. If no packets are shown the sender has not sent any weather packets the latest 10 day(s).
| Time | Temp. | Humidity | Pressure | Rain* | Wind** | Luminosity | Snow |
|---|---|---|---|---|---|---|---|
| 1777751617 | 21.11° C | 86% | 1011.6 hPa | 0.76 mm | - | - | - |
| 1777751504 | 23.89° C | 76% | 1012.1 hPa | 0 mm | - | - | - |
| 1777751317 | 23.89° C | 76% | 1012.1 hPa | 0 mm | - | - | - |
| 1777751165 | 27.22° C | 78% | 1011 hPa | 0 mm | - | - | - |
| 1777751117 | 27.22° C | 78% | 1011 hPa | 0 mm | - | - | - |
| 1777751017 | 27.22° C | 78% | 1011 hPa | 0 mm | - | - | - |
| 1777750902 | 27.22° C | 77% | 1010.3 hPa | 0 mm | - | - | - |
| 1777750717 | 27.22° C | 77% | 1010.3 hPa | 0 mm | - | - | - |
| 1777750572 | 27.22° C | 77% | 1010.3 hPa | 0 mm | - | - | - |
| 1777750417 | 27.22° C | 77% | 1010.3 hPa | 0 mm | - | - | - |
| 1777750353 | 27.22° C | 77% | 1010.3 hPa | 0 mm | - | - | - |
| 1777750117 | 27.22° C | 77% | 1010.3 hPa | 0 mm | - | - | - |
| 1777750058 | 27.22° C | 76% | 1010.2 hPa | 0 mm | - | - | - |
| 1777749817 | 27.22° C | 76% | 1010.3 hPa | 0 mm | - | - | - |
| 1777749517 | 27.22° C | 76% | 1010.2 hPa | 0 mm | - | - | - |
| 1777749217 | 27.78° C | 75% | 1010.2 hPa | 0 mm | - | - | - |
| 1777749160 | 27.78° C | 75% | 1010.4 hPa | 0 mm | - | - | - |
| 1777748917 | 27.78° C | 75% | 1010.4 hPa | 0 mm | - | - | - |
| 1777748714 | 27.78° C | 75% | 1010.4 hPa | 0 mm | - | - | - |
| 1777748617 | 27.78° C | 75% | 1010.4 hPa | 0 mm | - | - | - |
| 1777748318 | 27.78° C | 73% | 1010.4 hPa | 0 mm | - | - | - |
| 1777748317 | 27.78° C | 74% | 1010.7 hPa | 0 mm | - | - | - |
| 1777748017 | 27.78° C | 73% | 1010.4 hPa | 0 mm | - | - | - |
| 1777747717 | 28.33° C | 72% | 1010.3 hPa | 0 mm | - | - | - |
| 1777747655 | 28.33° C | 72% | 1010.2 hPa | 0 mm | - | - | - |
* Rain latest hour (hover to see other rain measurements)
** Current wind speed in m/s (hover to see current wind gust speed)